Tracking 33464 objects as of 13-Mar-2026
HD Live streaming from Space Station
objects crossing your sky now

CZ-4 DEB

Track CZ-4 DEB now!
10-day predictions


NORAD ID: 29043
Int'l Code: 2004-035K
Perigee: 543.3 km
Apogee: 547.7 km
Inclination: 97.6 °
Period: 95.4 minutes
Semi major axis: 6916 km
RCS: 0.0201 m2 (small)
Launch date: September 8, 2004
Source: People's Republic of China (PRC)
Launch site: Taiyaun Space Center, China (TSC)

Note: This is SATELLITE DEBRIS
Your satellite tracking list
Your tracking list is empty




NASA's NSSDC Master Catalog

Two Line Element Set (TLE):
1 29043U 04035K   26067.28576826  .00005021  00000-0  31898-3 0  9995
2 29043  97.5843  91.2716 0003147 107.6302 252.5270 15.09293825104187
Source of the keplerian elements: AFSPC